Home > Weather > Lehrte > Past weeks

Flag for Germany Past Weather in Lehrte, Lower Saxony, Germany — Yesterday and Last 2 Weeks

Now
68 °F

Passing clouds.


Feels Like: 68 °F
Forecast: 62 / 83 °F
Wind: 3 mph from Northeast

Location: Hannover

Current Time: Jul 23, 2016 at 11:24:56 AM

Latest Report: Jul 23, 2016 at 10:50 AM


Visibility: N/A

Pressure: 30.09 "Hg

Humidity: 88%

Dew Point: 64 °F

Location of LehrteLocation

Past Weather in Lehrte — Graph

°F

Lehrte Temperature Yesterday

Maximum temperature yesterday: 81 °F (at 12:20 PM)
Minimum temperature yesterday: 61 °F (at 3:20 AM)
Average temperature yesterday: 70 °F

High & Low Weather Summary for the Past Weeks

 TemperatureHumidityPressure
High88 °F (Jul 20, 3:20 PM)100% (Jul 13, 2:20 AM)30.24 "Hg (Jul 13, 2:20 AM)
Low52 °F (Jul 16, 2:20 AM)31% (Jul 20, 5:50 PM)29.71 "Hg (Jul 10, 11:50 PM)
Average67 °F73%30.01 "Hg
* Reported Jul 8 9:20 AM — Jul 23 9:50 AM, Lehrte, Weather by CustomWeather, © 2016

Note: Actual official high and low records may vary slightly from our data, if they occured in-between our weather recording intervals... More about our weather records

Advertising

Lehrte Weather History for the Previous 24 Hours

Scroll right to see more
 ConditionsComfort  
Time TempWeatherWind HumidityBarometerVisibility
9:50 AM
Sat, Jul 23
66 °FBroken clouds.3 mph88%30.07 "HgN/A
9:20 AM66 °FLight rain. Broken clouds.3 mph88%30.07 "HgN/A
8:50 AM64 °FLight rain. Partly sunny.3 mph94%30.07 "HgN/A
8:20 AM64 °FLight rain. Partly sunny.6 mph94%30.07 "HgN/A
7:50 AM64 °FLight rain. Partly sunny.6 mph94%30.07 "HgN/A
7:20 AM63 °FLight rain. Partly sunny.5 mph94%30.04 "HgN/A
6:50 AM63 °FLight rain. Partly sunny.3 mph94%30.04 "HgN/A
6:20 AM63 °FLight rain. Passing clouds.6 mph100%30.04 "HgN/A
5:50 AM63 °FLight rain. Clear.5 mph94%30.04 "HgN/A
5:20 AM64 °FPassing clouds.5 mph88%30.04 "HgN/A
4:50 AM63 °FFog.5 mph94%30.04 "HgN/A
4:20 AM63 °FFog.2 mph94%30.04 "HgN/A
3:50 AM63 °FClear.3 mph94%30.04 "Hg10 mi
3:20 AM61 °FClear.5 mph100%30.04 "Hg10 mi
2:50 AM61 °FClear.1 mph100%30.04 "Hg10 mi
2:20 AM61 °FClear.2 mph94%30.07 "Hg10 mi
1:50 AM63 °FClear.3 mph94%30.07 "Hg10 mi
1:20 AM63 °FClear.2 mph94%30.07 "Hg10 mi
12:50 AM63 °FClear.1 mph94%30.07 "Hg10 mi
12:20 AM61 °FClear.2 mph100%30.04 "Hg10 mi
11:50 PM
Fri, Jul 22
63 °FClear.2 mph94%30.04 "Hg10 mi
11:20 PM63 °FClear.1 mph94%30.04 "Hg10 mi
10:50 PM64 °FPassing clouds.3 mph88%30.04 "HgN/A
10:20 PM64 °FSunny.3 mph88%30.04 "Hg10 mi
9:50 PM66 °FSunny.5 mph88%30.04 "Hg10 mi
9:20 PM68 °FSunny.2 mph88%30.04 "Hg10 mi
8:50 PM68 °FPartly sunny.3 mph83%30.04 "HgN/A
8:20 PM70 °FPartly sunny.2 mph78%30.01 "HgN/A
7:50 PM70 °FPartly sunny.3 mph78%30.01 "HgN/A
7:20 PM70 °FScattered showers. Partly sunny.5 mph78%30.04 "HgN/A
6:50 PM70 °FScattered showers. Partly sunny.6 mph78%30.04 "HgN/A
6:20 PM70 °FSprinkles. Partly sunny.12 mph73%30.04 "HgN/A
5:50 PM72 °FSprinkles. Partly sunny.12 mph73%30.04 "HgN/A
5:20 PM77 °FThunderstorms. Partly sunny.9 mph65%30.04 "HgN/A
4:50 PM77 °FThunderstorms. Broken clouds.9 mph69%30.04 "HgN/A
4:20 PM77 °FScattered showers. Broken clouds.9 mph61%30.04 "HgN/A
3:50 PM79 °FBroken clouds.12 mph61%30.04 "HgN/A
3:20 PM79 °FPartly sunny.9 mph70%30.01 "HgN/A
2:50 PM79 °FPartly sunny.7 mph61%30.01 "HgN/A
2:20 PM79 °FPartly sunny.7 mph65%30.01 "HgN/A
1:50 PM79 °FScattered showers. Partly sunny.7 mph65%30.01 "HgN/A
1:20 PM79 °FPartly sunny.6 mph65%30.01 "HgN/A
12:50 PM81 °FPartly sunny.8 mph62%30.01 "HgN/A
12:20 PM81 °FPartly sunny.6 mph62%30.01 "HgN/A
11:50 AM79 °FPartly sunny.6 mph70%30.01 "HgN/A
11:20 AM77 °FSunny.3 mph69%30.01 "Hg10 mi
Weather by CustomWeather, © 2016

See weather overviewHow to use our weather pages